BAW240F EGLL-LPFR

Flight info

Callsign BAW240F
Flight time N/A
Altitude 35000
Route GASGU N866 SAM M195 LORKU DCT POZOF DCT BALDA DCT ABUPI DCT ORVED DCT UPULO DCT ALAGU
Aircraft A21N/M-SDE2E3FGHIRWXY/LB1

Departure

Time 2026-05-08 07:49
Airport London Heathrow Airport (EGLL)

Arrival

Time N/A
Airport Faro - Gago Coutinho International Airport (LPFR)
Time Latitude Longitude Altitude Speed Heading
2026-05-08 07:30 51.46926 -0.48573 92 ft 0 kts 360°
2026-05-08 07:40 51.46902 -0.48577 91 ft 4 kts 21°
2026-05-08 07:40 51.46882 -0.48600 92 ft 4 kts 63°
2026-05-08 07:41 51.46877 -0.48631 91 ft 1 kts 89°
2026-05-08 07:41 51.46877 -0.48637 91 ft 0 kts 89°
2026-05-08 07:45 51.46877 -0.48622 91 ft 2 kts 89°
2026-05-08 07:46 51.46877 -0.48589 92 ft 4 kts 89°
2026-05-08 07:46 51.46878 -0.48540 92 ft 5 kts 89°
2026-05-08 07:46 51.46864 -0.48480 91 ft 7 kts 134°
2026-05-08 07:46 51.46814 -0.48466 93 ft 8 kts 178°
2026-05-08 07:47 51.46751 -0.48463 93 ft 10 kts 178°
2026-05-08 07:47 51.46676 -0.48463 95 ft 11 kts 182°
2026-05-08 07:47 51.46621 -0.48466 92 ft 12 kts 182°
2026-05-08 07:47 51.46497 -0.48452 93 ft 14 kts 147°
2026-05-08 07:48 51.46479 -0.48353 92 ft 15 kts 91°
2026-05-08 07:48 51.46480 -0.47961 92 ft 63 kts 90°
2026-05-08 07:48 51.46482 -0.47298 92 ft 111 kts 89°
2026-05-08 07:48 51.46492 -0.45116 239 ft 170 kts 89°
2026-05-08 07:49 51.46495 -0.43810 632 ft 176 kts 90°
2026-05-08 07:49 51.46479 -0.41116 1652 ft 185 kts 95°
2026-05-08 07:49 51.46317 -0.39711 2060 ft 196 kts 111°
2026-05-08 07:49 51.45602 -0.37731 2432 ft 218 kts 136°
2026-05-08 07:50 51.44360 -0.36102 2838 ft 241 kts 137°
2026-05-08 07:50 51.43236 -0.34034 3575 ft 250 kts 133°
2026-05-08 07:50 51.41785 -0.32525 4378 ft 253 kts 162°
2026-05-08 07:50 51.40029 -0.32248 5186 ft 259 kts 187°
2026-05-08 07:51 51.38360 -0.33220 5737 ft 263 kts 213°
2026-05-08 07:51 51.36940 -0.35148 6494 ft 266 kts 222°
2026-05-08 07:51 51.35594 -0.37202 7318 ft 268 kts 222°
2026-05-08 07:51 51.34247 -0.39212 8165 ft 270 kts 221°
2026-05-08 07:52 51.32856 -0.41240 9028 ft 271 kts 221°
2026-05-08 07:52 51.31402 -0.43176 9872 ft 274 kts 220°
2026-05-08 07:52 51.30236 -0.45610 10468 ft 285 kts 245°
2026-05-08 07:52 51.29596 -0.48727 10801 ft 306 kts 253°
2026-05-08 07:53 51.29050 -0.52123 11156 ft 323 kts 254°
2026-05-08 07:53 51.28463 -0.55625 11814 ft 329 kts 253°
2026-05-08 07:53 51.27837 -0.59154 12571 ft 332 kts 252°
2026-05-08 07:53 51.27164 -0.62697 13334 ft 335 kts 252°
2026-05-08 07:54 51.26471 -0.66260 14058 ft 338 kts 252°
2026-05-08 07:54 51.25773 -0.69861 14700 ft 341 kts 251°
2026-05-08 07:54 51.25061 -0.73493 15302 ft 345 kts 251°
2026-05-08 07:54 51.24340 -0.77173 15903 ft 350 kts 251°
2026-05-08 07:55 51.23612 -0.80899 16501 ft 354 kts 251°
2026-05-08 07:55 51.22871 -0.84664 17089 ft 358 kts 251°
2026-05-08 07:55 51.22125 -0.88469 17673 ft 362 kts 251°
2026-05-08 07:55 51.21363 -0.92325 18254 ft 366 kts 250°
2026-05-08 07:56 51.20328 -0.96032 18742 ft 368 kts 237°
2026-05-08 07:56 51.18705 -0.99186 19240 ft 369 kts 224°
2026-05-08 07:56 51.16850 -1.02035 19743 ft 372 kts 223°
2026-05-08 07:56 51.14955 -1.04877 20240 ft 375 kts 223°
2026-05-08 07:57 51.13057 -1.07748 20729 ft 378 kts 223°
2026-05-08 07:57 51.11150 -1.10654 21215 ft 381 kts 223°
2026-05-08 07:57 51.09235 -1.13581 21698 ft 384 kts 223°
2026-05-08 07:57 51.07305 -1.16537 22181 ft 386 kts 223°
2026-05-08 07:58 51.05359 -1.19517 22655 ft 389 kts 223°
2026-05-08 07:58 51.03402 -1.22505 23133 ft 392 kts 223°
2026-05-08 07:58 51.01425 -1.25516 23607 ft 395 kts 223°
2026-05-08 07:58 50.99435 -1.28539 24005 ft 398 kts 223°
2026-05-08 07:59 50.97434 -1.31586 24404 ft 400 kts 224°
2026-05-08 07:59 50.95387 -1.34592 24797 ft 402 kts 220°
2026-05-08 07:59 50.93102 -1.37180 25160 ft 405 kts 214°
2026-05-08 07:59 50.90727 -1.39615 25527 ft 408 kts 213°
2026-05-08 08:00 50.88329 -1.42055 25869 ft 412 kts 214°
2026-05-08 08:00 50.85909 -1.44541 26092 ft 418 kts 214°
2026-05-08 08:00 50.83462 -1.47075 26384 ft 422 kts 215°
2026-05-08 08:00 50.80996 -1.49634 26684 ft 426 kts 215°
2026-05-08 08:01 50.78508 -1.52212 26989 ft 429 kts 215°
2026-05-08 08:01 50.76001 -1.54798 27286 ft 432 kts 215°
2026-05-08 08:01 50.73478 -1.57393 27585 ft 435 kts 215°
2026-05-08 08:01 50.70970 -1.59981 27873 ft 438 kts 216°
2026-05-08 08:02 50.68412 -1.62619 28161 ft 441 kts 216°
2026-05-08 08:02 50.65835 -1.65273 28445 ft 444 kts 216°
2026-05-08 08:02 50.63245 -1.67938 28720 ft 447 kts 216°
2026-05-08 08:02 50.60632 -1.70617 28976 ft 450 kts 217°
2026-05-08 08:03 50.58000 -1.73316 29238 ft 453 kts 217°
2026-05-08 08:03 50.55352 -1.76025 29511 ft 456 kts 217°
2026-05-08 08:03 50.52687 -1.78749 29793 ft 458 kts 217°
2026-05-08 08:03 50.50004 -1.81486 30040 ft 461 kts 217°
2026-05-08 08:04 50.47309 -1.84235 30274 ft 463 kts 217°
2026-05-08 08:04 50.44600 -1.86999 30521 ft 464 kts 218°
2026-05-08 08:04 50.41897 -1.89758 30827 ft 464 kts 218°
2026-05-08 08:04 50.39187 -1.92512 31134 ft 463 kts 218°
2026-05-08 08:05 50.36489 -1.95250 31503 ft 461 kts 218°
2026-05-08 08:05 50.33803 -1.97965 31859 ft 459 kts 218°
2026-05-08 08:05 50.31126 -2.00662 32200 ft 457 kts 219°
2026-05-08 08:05 50.28459 -2.03357 32524 ft 455 kts 219°
2026-05-08 08:06 50.25800 -2.06040 32841 ft 454 kts 219°
2026-05-08 08:06 50.23148 -2.08699 33149 ft 453 kts 218°
2026-05-08 08:06 50.20478 -2.11309 33439 ft 452 kts 218°
2026-05-08 08:06 50.17809 -2.13892 33717 ft 451 kts 218°
2026-05-08 08:07 50.15150 -2.16473 33979 ft 449 kts 218°
2026-05-08 08:07 50.12504 -2.19046 34221 ft 448 kts 218°
2026-05-08 08:07 50.09859 -2.21616 34414 ft 447 kts 218°
2026-05-08 08:07 50.07220 -2.24165 34599 ft 447 kts 218°
2026-05-08 08:08 50.04580 -2.26717 34771 ft 446 kts 218°
2026-05-08 08:08 50.01941 -2.29264 34950 ft 445 kts 217°
2026-05-08 08:08 49.99325 -2.31787 35066 ft 441 kts 217°
2026-05-08 08:09 49.94118 -2.36758 35042 ft 441 kts 214°
2026-05-08 08:09 49.88536 -2.40840 35046 ft 444 kts 210°
2026-05-08 08:10 49.82897 -2.44749 35048 ft 444 kts 210°
2026-05-08 08:10 49.77302 -2.48639 35048 ft 444 kts 210°
2026-05-08 08:11 49.71674 -2.52564 35030 ft 444 kts 210°
2026-05-08 08:11 49.66056 -2.56466 35031 ft 443 kts 210°
2026-05-08 08:12 49.60435 -2.60343 35026 ft 443 kts 210°
2026-05-08 08:12 49.54819 -2.64198 35025 ft 442 kts 210°
2026-05-08 08:13 49.49201 -2.68058 35001 ft 442 kts 210°
2026-05-08 08:13 49.43618 -2.71895 35021 ft 437 kts 210°
2026-05-08 08:14 49.38063 -2.75708 35015 ft 437 kts 209°
2026-05-08 08:14 49.32503 -2.79495 35023 ft 437 kts 209°
2026-05-08 08:15 49.26942 -2.83283 35005 ft 437 kts 209°
2026-05-08 08:15 49.21389 -2.87078 35022 ft 437 kts 209°
2026-05-08 08:16 49.15829 -2.90856 35030 ft 437 kts 209°
2026-05-08 08:16 49.10267 -2.94612 35029 ft 437 kts 209°
2026-05-08 08:17 49.04705 -2.98365 35027 ft 437 kts 209°
2026-05-08 08:17 48.99147 -3.02115 35020 ft 437 kts 209°
2026-05-08 08:18 48.93587 -3.05844 35025 ft 437 kts 209°
2026-05-08 08:18 48.88039 -3.09553 35028 ft 433 kts 208°
2026-05-08 08:19 48.82559 -3.13220 35026 ft 433 kts 208°
2026-05-08 08:19 48.77034 -3.16902 35022 ft 433 kts 208°
2026-05-08 08:20 48.71512 -3.20568 35022 ft 433 kts 208°
2026-05-08 08:20 48.65990 -3.24229 35020 ft 433 kts 208°
2026-05-08 08:21 48.60470 -3.27887 35001 ft 433 kts 208°
2026-05-08 08:21 48.54945 -3.31532 35012 ft 434 kts 208°
2026-05-08 08:22 48.49421 -3.35163 35009 ft 433 kts 208°
2026-05-08 08:22 48.43905 -3.38789 35012 ft 432 kts 208°
2026-05-08 08:23 48.38387 -3.42403 34988 ft 433 kts 208°
2026-05-08 08:23 48.32878 -3.46013 34992 ft 430 kts 208°
2026-05-08 08:24 48.27395 -3.49587 34993 ft 430 kts 208°
2026-05-08 08:24 48.21911 -3.53142 34995 ft 429 kts 208°
2026-05-08 08:25 48.16425 -3.56695 34981 ft 429 kts 207°
2026-05-08 08:25 48.10935 -3.60239 34993 ft 429 kts 207°
2026-05-08 08:26 48.05451 -3.63776 34986 ft 429 kts 207°
2026-05-08 08:26 47.99967 -3.67320 34985 ft 429 kts 207°
2026-05-08 08:27 47.94479 -3.70855 34969 ft 429 kts 207°
2026-05-08 08:27 47.88999 -3.74391 34979 ft 429 kts 207°
2026-05-08 08:28 47.83522 -3.77907 34975 ft 429 kts 207°
2026-05-08 08:28 47.78035 -3.81407 34979 ft 428 kts 207°
2026-05-08 08:29 47.72580 -3.84883 34964 ft 427 kts 207°
2026-05-08 08:29 47.67124 -3.88358 34976 ft 427 kts 207°
2026-05-08 08:30 47.61665 -3.91819 34971 ft 427 kts 207°
2026-05-08 08:30 47.53479 -3.96997 34971 ft 427 kts 206°
2026-05-08 08:31 47.48022 -4.00434 34962 ft 426 kts 206°
2026-05-08 08:31 47.42568 -4.03874 34965 ft 426 kts 206°
2026-05-08 08:32 47.37107 -4.07300 34960 ft 426 kts 206°
2026-05-08 08:32 47.31651 -4.10718 34961 ft 426 kts 206°
2026-05-08 08:33 47.26194 -4.14128 34957 ft 426 kts 206°
2026-05-08 08:33 47.20743 -4.17520 34956 ft 424 kts 206°
2026-05-08 08:34 47.15341 -4.20877 34952 ft 424 kts 205°
2026-05-08 08:34 47.09905 -4.24249 34937 ft 424 kts 205°
2026-05-08 08:35 47.04431 -4.27524 34945 ft 425 kts 203°
2026-05-08 08:35 46.99831 -4.30055 34948 ft 425 kts 203°
2026-05-08 08:36 46.94290 -4.33086 34940 ft 425 kts 203°
2026-05-08 08:36 46.88749 -4.36118 34937 ft 425 kts 203°
2026-05-08 08:37 46.83213 -4.39142 34937 ft 425 kts 202°
2026-05-08 08:37 46.77677 -4.42159 34938 ft 425 kts 202°
2026-05-08 08:38 46.72143 -4.45171 34936 ft 424 kts 202°
2026-05-08 08:38 46.66607 -4.48174 34934 ft 424 kts 202°
2026-05-08 08:39 46.61073 -4.51173 34932 ft 424 kts 202°
2026-05-08 08:39 46.55536 -4.54158 34923 ft 424 kts 202°
2026-05-08 08:40 46.49998 -4.57143 34920 ft 424 kts 202°
2026-05-08 08:40 46.44463 -4.60120 34916 ft 424 kts 202°
2026-05-08 08:41 46.38937 -4.63091 34914 ft 423 kts 202°
2026-05-08 08:41 46.33413 -4.66056 34911 ft 424 kts 202°
2026-05-08 08:42 46.27884 -4.69007 34909 ft 424 kts 202°
2026-05-08 08:42 46.22361 -4.71954 34906 ft 423 kts 202°
2026-05-08 08:43 46.16839 -4.74886 34905 ft 423 kts 202°
2026-05-08 08:43 46.11320 -4.77809 34906 ft 422 kts 201°
2026-05-08 08:44 46.05814 -4.80729 34887 ft 421 kts 201°
2026-05-08 08:44 46.00363 -4.83613 34893 ft 420 kts 201°
2026-05-08 08:45 45.94874 -4.86510 34892 ft 420 kts 201°
2026-05-08 08:45 45.89382 -4.89393 34888 ft 420 kts 201°
2026-05-08 08:46 45.83894 -4.92273 34880 ft 419 kts 201°
2026-05-08 08:46 45.78426 -4.95141 34882 ft 418 kts 201°
2026-05-08 08:47 45.72959 -4.98010 34882 ft 418 kts 201°
2026-05-08 08:47 45.67484 -5.00848 34881 ft 418 kts 201°
2026-05-08 08:48 45.62016 -5.03695 34874 ft 418 kts 201°
2026-05-08 08:48 45.56550 -5.06534 34872 ft 418 kts 201°
2026-05-08 08:49 45.51088 -5.09366 34878 ft 417 kts 200°
2026-05-08 08:49 45.45627 -5.12198 34863 ft 417 kts 200°
2026-05-08 08:50 45.40172 -5.15023 34861 ft 417 kts 200°
2026-05-08 08:50 45.34719 -5.17840 34861 ft 417 kts 200°
2026-05-08 08:51 45.29265 -5.20645 34861 ft 417 kts 200°
2026-05-08 08:51 45.23814 -5.23441 34856 ft 416 kts 200°
2026-05-08 08:52 45.18374 -5.26227 34850 ft 416 kts 199°
2026-05-08 08:52 45.12937 -5.29012 34849 ft 416 kts 200°
2026-05-08 08:53 45.07495 -5.31790 34845 ft 416 kts 199°
2026-05-08 08:53 45.02056 -5.34561 34845 ft 415 kts 199°
2026-05-08 08:54 44.96616 -5.37321 34855 ft 415 kts 199°
2026-05-08 08:54 44.91188 -5.40075 34849 ft 415 kts 199°
2026-05-08 08:55 44.85761 -5.42830 34844 ft 415 kts 199°
2026-05-08 08:55 44.80370 -5.45548 34847 ft 414 kts 198°
2026-05-08 08:56 44.74945 -5.48280 34846 ft 414 kts 198°
2026-05-08 08:56 44.69520 -5.51011 34844 ft 414 kts 198°
2026-05-08 08:57 44.64095 -5.53743 34844 ft 414 kts 198°
2026-05-08 08:57 44.58729 -5.56684 34843 ft 415 kts 202°
2026-05-08 08:58 44.53446 -5.59960 34842 ft 415 kts 202°
2026-05-08 08:58 44.48166 -5.63230 34843 ft 415 kts 202°
2026-05-08 08:59 44.42881 -5.66486 34844 ft 415 kts 202°
2026-05-08 08:59 44.37590 -5.69741 34841 ft 415 kts 202°
2026-05-08 09:00 44.32300 -5.72986 34848 ft 415 kts 202°
2026-05-08 09:00 44.27012 -5.76229 34850 ft 415 kts 202°
2026-05-08 09:01 44.21732 -5.79460 34847 ft 414 kts 201°
2026-05-08 09:01 44.16452 -5.82683 34847 ft 414 kts 201°
2026-05-08 09:02 44.11174 -5.85899 34847 ft 414 kts 201°
2026-05-08 09:02 44.05892 -5.89105 34844 ft 414 kts 201°
2026-05-08 09:03 44.00614 -5.92303 34846 ft 413 kts 201°
2026-05-08 09:03 43.95347 -5.95488 34847 ft 413 kts 201°
2026-05-08 09:04 43.90076 -5.98675 34844 ft 413 kts 201°
2026-05-08 09:04 43.84796 -6.01860 34841 ft 415 kts 201°
2026-05-08 09:05 43.79498 -6.05051 34836 ft 415 kts 201°
2026-05-08 09:05 43.74203 -6.08234 34831 ft 415 kts 201°
2026-05-08 09:06 43.68901 -6.11414 34844 ft 415 kts 200°
2026-05-08 09:06 43.63633 -6.14576 34835 ft 415 kts 200°
2026-05-08 09:07 43.58336 -6.17743 34870 ft 415 kts 200°
2026-05-08 09:07 43.53032 -6.20902 34866 ft 416 kts 200°
2026-05-08 09:08 43.47726 -6.24060 34864 ft 415 kts 200°
2026-05-08 09:08 43.42429 -6.27191 34858 ft 412 kts 200°
2026-05-08 09:09 43.37164 -6.30306 34851 ft 412 kts 200°
2026-05-08 09:09 43.31901 -6.33411 34845 ft 412 kts 200°
2026-05-08 09:10 43.26638 -6.36522 34841 ft 412 kts 200°
2026-05-08 09:10 43.21388 -6.39631 34861 ft 410 kts 200°
2026-05-08 09:11 43.16160 -6.42712 34851 ft 409 kts 200°
2026-05-08 09:11 43.10928 -6.45784 34851 ft 409 kts 200°
2026-05-08 09:12 43.05687 -6.48854 34869 ft 410 kts 200°
2026-05-08 09:12 43.00425 -6.51937 34868 ft 412 kts 199°
2026-05-08 09:13 42.95153 -6.55015 34866 ft 412 kts 199°
2026-05-08 09:13 42.89887 -6.58085 34869 ft 412 kts 199°
2026-05-08 09:14 42.84617 -6.61149 34868 ft 412 kts 199°
2026-05-08 09:14 42.79375 -6.64194 34874 ft 413 kts 199°
2026-05-08 09:15 42.74090 -6.67265 34878 ft 413 kts 199°
2026-05-08 09:15 42.68799 -6.70323 34877 ft 413 kts 199°
2026-05-08 09:16 42.63508 -6.73381 34876 ft 413 kts 199°
2026-05-08 09:16 42.58221 -6.76433 34878 ft 413 kts 199°
2026-05-08 09:17 42.52929 -6.79476 34884 ft 413 kts 199°
2026-05-08 09:17 42.47633 -6.82521 34884 ft 413 kts 199°
2026-05-08 09:18 42.42344 -6.85550 34902 ft 413 kts 199°
2026-05-08 09:18 42.37055 -6.88581 34901 ft 413 kts 198°
2026-05-08 09:19 42.31755 -6.91604 34900 ft 413 kts 198°
2026-05-08 09:19 42.26455 -6.94628 34896 ft 413 kts 198°
2026-05-08 09:20 42.21159 -6.97642 34903 ft 413 kts 198°
2026-05-08 09:20 42.15858 -7.00653 34901 ft 414 kts 198°
2026-05-08 09:21 42.11446 -7.03148 34909 ft 414 kts 198°
2026-05-08 09:23 41.92849 -7.13660 34906 ft 416 kts 198°
2026-05-08 09:23 41.87514 -7.16661 34902 ft 416 kts 198°
2026-05-08 09:24 41.82176 -7.19657 34899 ft 415 kts 198°
2026-05-08 09:24 41.76841 -7.22639 34916 ft 415 kts 197°
2026-05-08 09:25 41.71278 -7.24397 34913 ft 411 kts 185°
2026-05-08 09:25 41.65608 -7.25376 34910 ft 411 kts 185°
2026-05-08 09:26 41.59943 -7.26376 34903 ft 411 kts 185°
2026-05-08 09:26 41.54277 -7.27395 34896 ft 411 kts 185°
2026-05-08 09:27 41.48597 -7.28422 34899 ft 412 kts 186°
2026-05-08 09:27 41.42914 -7.29448 34907 ft 413 kts 186°
2026-05-08 09:28 41.37220 -7.30473 34914 ft 413 kts 186°
2026-05-08 09:28 41.31523 -7.31500 34908 ft 413 kts 186°
2026-05-08 09:29 41.25854 -7.32515 34905 ft 414 kts 186°
2026-05-08 09:29 41.20146 -7.33540 34904 ft 414 kts 186°
2026-05-08 09:30 41.14435 -7.34562 34903 ft 413 kts 186°
2026-05-08 09:30 41.08732 -7.35576 34910 ft 415 kts 187°
2026-05-08 09:31 41.03005 -7.36592 34904 ft 415 kts 187°
2026-05-08 09:31 40.97278 -7.37615 34906 ft 415 kts 187°
2026-05-08 09:32 40.91553 -7.38629 34909 ft 415 kts 187°
2026-05-08 09:32 40.85806 -7.39654 34923 ft 418 kts 188°
2026-05-08 09:33 40.80042 -7.40673 34916 ft 418 kts 188°
2026-05-08 09:33 40.74277 -7.41684 34919 ft 418 kts 188°
2026-05-08 09:34 40.68509 -7.42705 34926 ft 418 kts 188°
2026-05-08 09:34 40.62738 -7.43724 34926 ft 419 kts 189°
2026-05-08 09:35 40.56956 -7.44736 34926 ft 419 kts 189°
2026-05-08 09:35 40.51174 -7.45752 34926 ft 419 kts 189°
2026-05-08 09:36 40.45391 -7.46762 34924 ft 419 kts 189°
2026-05-08 09:36 40.39608 -7.47775 34924 ft 419 kts 189°
2026-05-08 09:37 40.33827 -7.48779 34932 ft 419 kts 189°
2026-05-08 09:37 40.28083 -7.49779 34935 ft 419 kts 189°
2026-05-08 09:38 40.22300 -7.50786 34923 ft 419 kts 190°
2026-05-08 09:38 40.16515 -7.51788 34931 ft 420 kts 191°
2026-05-08 09:39 40.10729 -7.52797 34943 ft 419 kts 190°
2026-05-08 09:39 40.04945 -7.53796 34940 ft 419 kts 190°
2026-05-08 09:40 39.99164 -7.54792 34920 ft 419 kts 191°
2026-05-08 09:40 39.93379 -7.55791 34938 ft 419 kts 191°
2026-05-08 09:41 39.87592 -7.56787 34937 ft 419 kts 191°
2026-05-08 09:41 39.81808 -7.57784 34939 ft 419 kts 191°
2026-05-08 09:42 39.76027 -7.58773 34932 ft 418 kts 192°
2026-05-08 09:42 39.70265 -7.59757 34945 ft 417 kts 192°
2026-05-08 09:43 39.64511 -7.60745 34951 ft 417 kts 192°
2026-05-08 09:43 39.58766 -7.61724 34947 ft 416 kts 192°
2026-05-08 09:44 39.53038 -7.62699 34934 ft 414 kts 192°
2026-05-08 09:44 39.47339 -7.63672 34941 ft 413 kts 192°
2026-05-08 09:45 39.41647 -7.64641 34945 ft 413 kts 192°
2026-05-08 09:45 39.35902 -7.65234 34948 ft 417 kts 186°
2026-05-08 09:46 39.30087 -7.65221 34940 ft 417 kts 186°
2026-05-08 09:46 39.24300 -7.65207 34941 ft 416 kts 186°
2026-05-08 09:47 39.18514 -7.65203 34942 ft 415 kts 186°
2026-05-08 09:47 39.12743 -7.65204 34943 ft 415 kts 186°
2026-05-08 09:48 39.06998 -7.65382 34921 ft 406 kts 195°
2026-05-08 09:48 39.04314 -7.66350 34942 ft 397 kts 207°
2026-05-08 09:48 39.01883 -7.67989 34944 ft 393 kts 214°
2026-05-08 09:49 38.97231 -7.71593 34947 ft 393 kts 214°
2026-05-08 09:49 38.92521 -7.75162 34948 ft 393 kts 214°
2026-05-08 09:50 38.87794 -7.78704 34939 ft 393 kts 214°
2026-05-08 09:50 38.83079 -7.82226 34938 ft 391 kts 214°
2026-05-08 09:51 38.78382 -7.85729 34939 ft 391 kts 214°
2026-05-08 09:51 38.73677 -7.89230 34943 ft 391 kts 214°
2026-05-08 09:52 38.68975 -7.92724 34944 ft 391 kts 214°
2026-05-08 09:52 38.64274 -7.96214 34947 ft 391 kts 214°
2026-05-08 09:53 38.59580 -7.99693 34934 ft 388 kts 214°
2026-05-08 09:53 38.57270 -8.01398 34637 ft 380 kts 214°
2026-05-08 09:53 38.54983 -8.03087 33789 ft 379 kts 214°
2026-05-08 09:53 38.52693 -8.04782 32715 ft 380 kts 214°
2026-05-08 09:54 38.50405 -8.06475 31680 ft 382 kts 214°
2026-05-08 09:54 38.48099 -8.08176 30654 ft 382 kts 214°
2026-05-08 09:54 38.45804 -8.09866 29696 ft 379 kts 214°
2026-05-08 09:54 38.43533 -8.11535 28725 ft 375 kts 214°
2026-05-08 09:55 38.41288 -8.13184 27883 ft 372 kts 214°
2026-05-08 09:55 38.39053 -8.14826 27070 ft 368 kts 214°
2026-05-08 09:55 38.36846 -8.16448 26373 ft 365 kts 214°
2026-05-08 09:55 38.34656 -8.18057 25751 ft 361 kts 214°
2026-05-08 09:56 38.32489 -8.19648 25133 ft 358 kts 214°
2026-05-08 09:56 38.30310 -8.21170 24515 ft 358 kts 209°
2026-05-08 09:56 38.27911 -8.22121 23886 ft 366 kts 195°
2026-05-08 09:56 38.25364 -8.22416 23250 ft 368 kts 189°
2026-05-08 09:57 38.20292 -8.22721 22037 ft 361 kts 188°
2026-05-08 09:57 38.17802 -8.22889 21518 ft 355 kts 189°
2026-05-08 09:57 38.15358 -8.23065 21056 ft 349 kts 188°
2026-05-08 09:58 38.12955 -8.23241 20620 ft 342 kts 188°
2026-05-08 09:58 38.10598 -8.23417 20204 ft 336 kts 188°
2026-05-08 09:58 38.08284 -8.23591 19799 ft 330 kts 188°
2026-05-08 09:58 38.06005 -8.23764 19409 ft 327 kts 188°
2026-05-08 09:59 38.03744 -8.23936 19046 ft 324 kts 188°
2026-05-08 09:59 38.01494 -8.24107 18680 ft 323 kts 188°
2026-05-08 09:59 37.99251 -8.24277 18318 ft 323 kts 187°
2026-05-08 09:59 37.97010 -8.24445 17910 ft 323 kts 187°
2026-05-08 10:00 37.94765 -8.24614 17511 ft 323 kts 187°
2026-05-08 10:00 37.92525 -8.24781 17131 ft 322 kts 187°
2026-05-08 10:00 37.90289 -8.24948 16763 ft 321 kts 187°
2026-05-08 10:00 37.88064 -8.25115 16387 ft 320 kts 187°
2026-05-08 10:01 37.85848 -8.25282 16030 ft 319 kts 187°
2026-05-08 10:01 37.83630 -8.25452 15672 ft 318 kts 187°
2026-05-08 10:01 37.81423 -8.25620 15326 ft 317 kts 187°
2026-05-08 10:01 37.79226 -8.25786 15002 ft 316 kts 187°
2026-05-08 10:02 37.77035 -8.25952 14654 ft 315 kts 187°
2026-05-08 10:02 37.74846 -8.26117 14306 ft 315 kts 187°
2026-05-08 10:02 37.72658 -8.26281 13953 ft 315 kts 187°
2026-05-08 10:02 37.70471 -8.26446 13585 ft 315 kts 187°
2026-05-08 10:03 37.68280 -8.26610 13222 ft 314 kts 187°
2026-05-08 10:03 37.66102 -8.26772 12870 ft 313 kts 187°
2026-05-08 10:03 37.63942 -8.26934 12542 ft 310 kts 187°
2026-05-08 10:03 37.61792 -8.27095 12216 ft 308 kts 187°
2026-05-08 10:04 37.59654 -8.27255 11873 ft 307 kts 187°
2026-05-08 10:04 37.57525 -8.27415 11528 ft 307 kts 186°
2026-05-08 10:04 37.55396 -8.27573 11197 ft 306 kts 186°
2026-05-08 10:04 37.53275 -8.27732 10860 ft 305 kts 186°
2026-05-08 10:05 37.51169 -8.27889 10578 ft 299 kts 186°
2026-05-08 10:05 37.49127 -8.28040 10403 ft 289 kts 186°
2026-05-08 10:05 37.47185 -8.28183 10268 ft 278 kts 186°
2026-05-08 10:05 37.45267 -8.28325 9944 ft 275 kts 186°
2026-05-08 10:06 37.43358 -8.28469 9519 ft 275 kts 186°
2026-05-08 10:06 37.41450 -8.28610 9095 ft 274 kts 186°
2026-05-08 10:06 37.39547 -8.28752 8698 ft 273 kts 186°
2026-05-08 10:06 37.37659 -8.28892 8327 ft 270 kts 186°
2026-05-08 10:07 37.35791 -8.29030 7931 ft 269 kts 186°
2026-05-08 10:07 37.33925 -8.29169 7537 ft 269 kts 186°
2026-05-08 10:07 37.32692 -8.29261 7304 ft 268 kts 185°
2026-05-08 10:07 37.30211 -8.29445 6848 ft 265 kts 185°
2026-05-08 10:08 37.28379 -8.29580 6482 ft 263 kts 185°
2026-05-08 10:08 37.27143 -8.29672 6211 ft 263 kts 185°
2026-05-08 10:08 37.25347 -8.29805 5884 ft 261 kts 185°
2026-05-08 10:08 37.23541 -8.29939 5496 ft 259 kts 185°
2026-05-08 10:09 37.21741 -8.29957 5113 ft 259 kts 176°
2026-05-08 10:09 37.19957 -8.29656 4790 ft 258 kts 173°
2026-05-08 10:09 37.18200 -8.29315 4480 ft 254 kts 172°
2026-05-08 10:09 37.16444 -8.28977 4117 ft 256 kts 172°
2026-05-08 10:10 37.14697 -8.28640 3850 ft 250 kts 172°
2026-05-08 10:10 37.13084 -8.27973 3705 ft 241 kts 152°
2026-05-08 10:10 37.11796 -8.26687 3592 ft 233 kts 138°
2026-05-08 10:10 37.10664 -8.25296 3562 ft 225 kts 139°
2026-05-08 10:11 37.09534 -8.23929 3603 ft 226 kts 139°
2026-05-08 10:11 37.08426 -8.22529 3568 ft 226 kts 136°
2026-05-08 10:11 37.07342 -8.21125 3528 ft 218 kts 137°
2026-05-08 10:11 37.06311 -8.19807 3393 ft 206 kts 137°
2026-05-08 10:12 37.05325 -8.18519 3232 ft 205 kts 133°
2026-05-08 10:12 37.04542 -8.17025 2993 ft 207 kts 118°
2026-05-08 10:12 37.04078 -8.15351 2752 ft 198 kts 108°
2026-05-08 10:12 37.03856 -8.13676 2505 ft 192 kts 103°
2026-05-08 10:13 37.03631 -8.12050 2224 ft 187 kts 104°
2026-05-08 10:13 37.03407 -8.10467 1946 ft 182 kts 103°
2026-05-08 10:13 37.03189 -8.08926 1683 ft 177 kts 103°
2026-05-08 10:13 37.02979 -8.07442 1449 ft 169 kts 104°
2026-05-08 10:14 37.02781 -8.06043 1248 ft 153 kts 103°
2026-05-08 10:14 37.02603 -8.04793 1033 ft 144 kts 105°
2026-05-08 10:14 37.02430 -8.03567 829 ft 143 kts 104°
2026-05-08 10:14 37.02257 -8.02343 650 ft 142 kts 104°
2026-05-08 10:15 37.02088 -8.01133 463 ft 141 kts 102°
2026-05-08 10:15 37.01921 -7.99926 302 ft 139 kts 102°
2026-05-08 10:15 37.01754 -7.98742 123 ft 139 kts 103°
2026-05-08 10:15 37.01591 -7.97584 27 ft 127 kts 103°
2026-05-08 10:16 37.01467 -7.96756 28 ft 54 kts 101°